#timestamp,LO_Frequency,Hit,StdDev 
1638536415.1,286047000.3,N
1638536416.0,286047000.3,N
1638536435.8,286047000.6,N
1638536455.6,286047000.3,N
1638536475.5,286047000.4,N
1638536495.3,286047002.4,N
1638536515.1,286047000.5,N
1638536535.9,286047000.8,N
1638536555.7,286047001.0,N
1638536575.6,286046998.2,N
1638536595.4,286047000.8,N
1638536615.2,286046998.8,N
1638536635.1,286046998.8,N
1638536636.0,286046998.8,N
1638536655.8,286047001.2,N
1638536675.6,286046998.1,N
1638536695.5,286047000.0,N
1638536715.3,286047001.1,N
1638536735.2,286046998.5,N
1638536755.9,286046998.8,N
1638536775.7,286046998.9,N
1638536795.6,286046996.5,N
1638536815.4,286046998.1,N
1638536835.2,286046999.3,N
1638536855.1,286046998.3,N
1638536856.0,286046998.3,N
1638536875.8,286046998.4,N
1638536895.7,286046999.0,N
1638536915.5,286046999.2,N
1638536935.3,286046997.2,N
1638536955.2,286046998.8,N
1638536975.0,286046999.4,N
1638536975.9,286046999.4,N
1638536995.8,286046996.8,N
1638537015.6,286046998.3,N
1638537035.4,286046997.4,N
1638537055.3,286046997.0,N
1638537075.1,286046999.5,N
1638537095.9,286046999.2,N
1638537115.7,286046996.5,Y
1638537135.5,286046999.0,P
1638537155.4,286046997.1,P
1638537175.2,286046996.8,P
1638537195.0,286046998.5,N
1638537195.9,286046998.5,N
1638537215.8,286047001.0,N
1638537235.6,286046998.1,N
1638537255.5,286047000.7,N
1638537275.3,286047001.0,N
1638537295.1,286046999.9,N
1638537315.9,286047000.5,N
1638537335.7,286047002.2,N
1638537355.5,286047002.1,N
1638537375.4,286046999.9,N
1638537395.2,286047000.1,N
1638537415.0,286047002.7,N
1638537416.0,286047002.7,N
1638537465.8,286046999.8,E
1638537475.7,286047000.1,N
1638537495.6,286047000.3,P
1638537515.4,286047000.2,N
1638537535.2,286047000.0,N
1638537555.1,286047002.3,Y
1638537556.0,286047002.3,P
1638537575.8,286046999.7,N
1638537595.6,286047000.6,N
1638537615.5,286047000.0,N
1638537635.3,286047002.8,Y
1638537655.2,286046999.8,P
1638537675.9,286047000.9,N
1638537695.7,286047000.4,N
1638537715.6,286046999.9,N
1638537735.4,286047000.2,N
1638537755.2,286047002.3,Y
1638537775.1,286047000.9,P
1638537776.0,286047000.9,N
1638537795.8,286047000.5,N
1638537815.7,286046998.2,Y
1638537835.5,286046998.8,P
1638537855.3,286046999.1,N
1638537875.2,286047000.7,N
1638537895.0,286046998.1,N
1638537895.9,286046998.1,N
1638537915.8,286047000.5,N
1638537935.6,286047000.9,N
1638537955.4,286046999.9,N
1638537975.3,286047001.0,N
1638537995.1,286047008.3,Y
1638538015.8,286047013.2,P
1638538035.7,286047011.5,N
1638538055.5,286047010.5,N
1638538075.4,286047006.4,N
1638538095.2,286047005.3,N
1638538115.0,286047003.5,N
1638538115.9,286047003.5,N
1638538135.8,286047001.8,N
1638538155.6,286047001.6,N
1638538175.5,286047004.3,N
1638538195.3,286047001.3,N
1638538215.1,286047002.8,N
1638538235.9,286046999.7,N
1638538255.7,286047000.5,N
1638538275.5,286047000.3,N
1638538295.4,286047001.5,N
1638538315.2,286047001.9,N
1638538335.1,286047002.5,N
1638538336.0,286047002.5,N
1638538355.8,286047000.1,N
1638538375.6,286047000.3,N
1638538395.5,286047001.0,N
1638538415.3,286047000.8,N
1638538435.1,286046999.1,N
1638538455.9,286046996.7,N
1638538475.7,286046996.6,N
1638538495.6,286046999.2,N
1638538515.4,286046996.9,N
1638538535.2,286047009.2,N
1638538555.1,286047009.8,N
1638538586.0,286047007.8,E
1638538595.0,286047005.2,N
1638538595.9,286047005.2,P
1638538615.8,286046999.1,P
1638538635.6,286046995.0,N
1638538655.4,286046995.9,N
1638538675.3,286046994.6,N
1638538695.1,286046993.2,N
1638538715.9,286046991.2,N
1638538735.7,286046991.4,N
1638538755.5,286046990.7,N
1638538775.4,286046990.1,N
1638538795.2,286046988.5,N
1638538815.0,286046989.2,N
1638538816.0,286046989.2,N
1638538835.8,286046992.9,N
1638538855.6,286046990.5,N
1638538875.5,286046989.6,N
1638538895.3,286046991.5,N
1638538915.1,286046992.3,N
1638538935.9,286046994.3,N
1638538955.7,286046990.7,N
1638538975.6,286046991.5,N
1638538995.4,286046991.3,N
1638539015.2,286046990.0,N
1638539035.1,286046988.9,N
1638539036.0,286046988.9,N
1638539055.8,286046988.5,N
1638539075.7,286046990.8,N
1638539095.5,286046990.4,N
1638539115.3,286046991.3,N
1638539135.2,286046989.2,N
1638539155.9,286046990.0,N
1638539175.7,286046987.0,Y
1638539195.6,286046995.6,P
1638539215.4,286046995.2,N
1638539235.3,286046996.4,N
1638539255.1,286046995.0,N
1638539256.0,286046995.0,N
1638539275.8,286046995.3,N
1638539295.7,286046995.5,Y
1638539315.5,286047001.0,P
1638539335.3,286046999.4,N
1638539355.2,286046998.6,N
1638539375.0,286046998.7,N
1638539375.9,286046998.7,N
1638539395.8,286046998.9,N
1638539415.6,286047000.6,N
1638539435.4,286047000.5,N
1638539455.3,286047001.1,N
1638539475.1,286047000.6,N
1638539495.8,286047002.6,N
1638539515.7,286047000.0,N
1638539535.5,286047000.6,N
1638539555.4,286046999.7,N
1638539575.2,286047000.3,N
1638539595.0,286047002.2,N
1638539595.9,286047002.2,N
1638539615.8,286047002.4,N
1638539635.6,286047000.0,N
1638539655.4,286047002.2,N
1638539675.3,286047002.3,N
1638539695.1,286047002.0,N
1638539715.9,286047004.2,N
1638539735.7,286047001.5,N
1638539755.5,286047000.1,N
1638539775.4,286047001.8,N
1638539795.2,286047003.5,N
1638539815.0,286047001.7,N
1638539815.9,286047001.7,N
1638539835.8,286047003.7,N
1638539855.6,286047004.4,N
1638539875.5,286047004.1,N
1638539895.3,286047001.5,N
1638539915.1,286047002.1,N
1638539935.9,286047002.4,N
1638539955.7,286047000.4,N
1638539975.5,286046999.9,N
1638539995.4,286047000.6,N
